Voltar ao catálogo

STARLINK-33640

AtivoComunicaçõesVLEO
NORAD 63378·PAYLOAD·🇺🇸 United States

Lançado Mar 26, 2025 de Vandenberg Space Force Base

Loading…

Próximas Passagens (próximas 24 horas)

TLE

AtualizadoSource: CelesTrak SupGP

Época: Sep 15, 2026, 02:06 UTC

1 63378C 25063R   26258.08798611 -.00026482  00000+0 -78181-3 0  2585
2 63378  53.1575 250.9931 0001391  96.5261 188.9584 15.34427656    14

Acompanhe STARLINK-33640 em tempo real com AllMySat

Download on the App Store